Location: Carimao
(10.4546°N, 66.7419°W)
Time: 07:11:45
(UTC+00:00)

GPS 2-15 Rocket1 - Pass Details

Date: 19 May 2024
Orbit: 615 x 664 km, 19.8° (Epoch: 23 June)

Event Time Altitude Azimuth Distance (km) Brightness Sun altitude
Rises 23:18:23 0° 276° (W) 2,967 8.2 -9.0°
Reaches altitude 10° 23:20:57 10° 267° (W) 2,049 6.9 -9.6°
Maximum altitude 23:25:20 35° 201° (SSW) 1,046 4.2 -10.6°
Enters shadow 23:29:08 13° 139° (SE) 1,841 4.9 -11.5°
